Regional Weather Roundup
Issued by NWS

Home | Current Version | Previous Version | Graphics & Text | Print | Product List | Glossary On
Versions: 1 2 3 4 5 6 7 8 9 10 11 12 13 14 15 16 17 18 19 20 21 22 23 24 25 26 27 28 29 30 31 32 33 34 35 36 37 38 39 40 41 42 43 44 45 46 47 48 49 50
000
ASUS43 KLOT 231212
RWRIL

ILLINOIS REGIONAL WEATHER ROUNDUP
NATIONAL WEATHER SERVICE CHICAGO/ROMEOVILLE IL
600 AM CST MON JAN 23 2017

NOTE: "FAIR" INDICATES FEW OR NO CLOUDS BELOW 12,000 FEET WITH NO
SIGNIFICANT WEATHER AND/OR OBSTRUCTIONS TO VISIBILITY.

* THESE STATIONS ARE NOT UNDER NWS QUALITY CONTROL. THEY ALSO MAY NOT
  REPORT WEATHER SUCH AS PRECIPITATION OR FOG.

ILZ001-002-007-009-015-016-024-231300-
NORTHWEST ILLINOIS

CITY           SKY/WX    TMP DP  RH WIND       PRES   REMARKS
MOLINE         CLOUDY    37  33  85 NW8       29.78S WCI  31
6HR MIN TEMP:  37; 6HR MAX TEMP:  38;

STERLING*      CLOUDY    36  35  96 NW8       29.77S FOG     WCI  30
SAVANNA*       CLOUDY    37  35  94 NW6       29.77S WCI  32
$$

ILZ003-004-008-010-011-017-018-231300-
NORTH CENTRAL ILLINOIS

CITY           SKY/WX    TMP DP  RH WIND       PRES   REMARKS
ROCKFORD       CLOUDY    37  35  92 NW7       29.77R FOG     WCI  32
6HR MIN TEMP:  37; 6HR MAX TEMP:  38; 6HR PCP: TRACE;

FREEPORT*      CLOUDY    35  34  97 NW5       29.78R FOG     WCI  31
ROCHELLE*      CLOUDY    36  35  99 N7        29.76S FOG     WCI  30
DE KALB*       CLOUDY    36  36  98 N7        29.75S FOG     WCI  31
PERU*          CLOUDY    37  34  90 NW8       29.77R WCI  30
$$

ILZ005-006-012>014-019>023-231300-
NORTHEAST ILLINOIS

CITY           SKY/WX    TMP DP  RH WIND       PRES   REMARKS
CHICAGO-OHARE  CLOUDY    38  35  89 N13       29.73S WCI  30
6HR MIN TEMP:  37; 6HR MAX TEMP:  39;

CHICAGO-MIDWAY CLOUDY    39  33  79 N13G23    29.73R WCI  31
6HR MIN TEMP:  39; 6HR MAX TEMP:  40;

AURORA         CLOUDY    38  35  89 N12       29.75R WCI  30
6HR MIN TEMP:  38; 6HR MAX TEMP:  38;

LANSING*       CLOUDY    37  36  94 N9        29.72S WCI  31
JOLIET*        CLOUDY    40  37  91 N7        29.74S
WAUKEGAN       CLOUDY    37  35  92 N6        29.73R WCI  32
6HR MIN TEMP:  36; 6HR MAX TEMP:  37;

DUPAGE AIRPORT CLOUDY    38  33  82 N9        29.73R WCI  31
6HR MIN TEMP:  38; 6HR MAX TEMP:  39;

KANKAKEE*      CLOUDY    38  35  89 NW9       29.72S WCI  32
WHEELING       CLOUDY    38  34  85 N7        29.75R WCI  33
6HR MIN TEMP:  37; 6HR MAX TEMP:  38;

MORRIS*        CLOUDY    37  35  90 N5        29.74R WCI  34
ROMEOVILLE*    CLOUDY    38  37  97 N10       29.73F WCI  31
NORTHERLY ISL    N/A     37  34  89 N12         N/A  WCI  29
$$

LMZ740>746-231300-
SOUTHERN LAKE MICHIGAN

STATION/POSITION SKY/WX   TEMP    WIND        PRES    VSBY  WAVE
                          AIR SEA DIR/SP/G                  HT/PER
                          (F)     (DEG/KT/KT) (MB)    (MI)  (FT/S)
HARRISON CRIB              36     340/ 14/ 14   N/A
BURNHAM HARBOR             37     340/  9/ 13   N/A
CALUMET HARBOR             36     330/ 10/ 14 1006.1R
BURNS HARBOR               36     350/ 12/ 16 1006.8R
MICHIGAN CITY              36     330/ 17/ 18   N/A
$$

ILZ025>027-034>036-040-047-049-050-058-095>099-231300-
WEST-CENTRAL ILLINOIS

CITY           SKY/WX    TMP DP  RH WIND       PRES   REMARKS
QUINCY         CLOUDY    38  35  89 NW13      29.80R WCI  30
GALESBURG*     CLOUDY    35  35 100 NW10      29.77S FOG     WCI  28
MACOMB*        CLOUDY    36  35  96 NW12      29.81R WCI  28
JACKSONVILLE*  CLOUDY    37  35  92 N9        29.79R WCI  30
PITTSFIELD*    CLOUDY    39  36  89 NW9       29.80R WCI  32
$$

ILZ028>032-037-038-041>044-048-051>054-059>061-231300-
CENTRAL ILLINOIS

CITY           SKY/WX    TMP DP  RH WIND       PRES   REMARKS
PONTIAC        CLOUDY    38  38 100 NW12      29.75S WCI  30
BLOOMINGTON    CLOUDY    37  35  92 N16       29.74S WCI  28
DECATUR        CLOUDY    39  37  92 NW15G23   29.72S WCI  31
PEORIA         CLOUDY    37  35  92 N8        29.77R WCI  31
6HR MIN TEMP:  37; 6HR MAX TEMP:  39;

LACON*         CLOUDY    37  35  95 N5        29.76R WCI  33
LINCOLN*       CLOUDY    38  37  93 N9        29.76S WCI  32
SPRINGFIELD    CLOUDY    39  35  86 N12       29.78R WCI  32
6HR MIN TEMP:  39; 6HR MAX TEMP:  40; 6HR PCP: TRACE;

TAYLORVILLE    CLOUDY    38  36  93 NW17G23   29.75S WCI  28
6HR MIN TEMP:  38; 6HR MAX TEMP:  39;

$$

ILZ033-039-045-046-055>057-062-063-231300-
EAST-CENTRAL ILLINOIS

CITY           SKY/WX    TMP DP  RH WIND       PRES   REMARKS
CHAMPAIGN      CLOUDY    38  35  89 N18       29.69R WCI  28
RANTOUL*       CLOUDY    40  38  93 N15       29.70R FOG
MATTOON        CLOUDY    39  37  92 N17       29.68R WCI  30
PARIS*         CLOUDY    40  39  95 N15G25    29.67R FOG
$$

ILZ079-100>102-231300-
SOUTHWEST ILLINOIS

CITY           SKY/WX    TMP DP  RH WIND       PRES   REMARKS
ALTON          CLOUDY    38  35  89 NW7       29.78R WCI  33
BELLEVILLE     CLOUDY    40  39  95 NW12      29.76R
CAHOKIA*       CLOUDY    41  35  79 N15       29.78R
SPARTA*        CLOUDY    39  36  86 NW12G22   29.76R WCI  32
$$

ILZ064>066-069>071-074>076-080>082-084>086-088>090-092>094-231300-
SOUTH-CENTRAL ILLINOIS

CITY           SKY/WX    TMP DP  RH WIND       PRES   REMARKS
CARBONDALE     CLOUDY    40  37  89 N15G26    29.72R
6HR MIN TEMP:  40; 6HR MAX TEMP:  43;

CAIRO*         CLEAR     40  36  84 NW15G21   29.69R
EFFINGHAM*     CLOUDY    41  39  93 NW15G23   29.71S
MARION         CLOUDY    41  39  93 NW10G22   29.71R
MT. VERNON     CLOUDY    41  36  82 VRB6      29.70R
CENTRALIA*     CLOUDY    41  38  87 NW18G28   29.70F
SALEM*         CLOUDY    41  37  86 N22       29.71S
METROPOLIS*    CLEAR     40  36  83 NW10G23   29.67R
$$

ILZ067-068-072-073-078-083-087-091-231300-
SOUTHEAST ILLINOIS

CITY           SKY/WX    TMP DP  RH WIND       PRES   REMARKS
LAWRENCEVILLE  CLOUDY    42  40  92 NW17      29.63R
FLORA*         CLOUDY    43  38  85 NW16G22   29.69R
FAIRFIELD*     CLOUDY    41  38  88 NW8G16    29.67R
HARRISBURG*    CLOUDY    41  37  86 NW15G25   29.67S
ROBINSON*      CLOUDY    41  39  93 N17       29.65R FOG
CARMI*         CLOUDY    42  38  88 NW18G26   29.65R
$$

ABBREVIATIONS USED IN REMARKS
   TC - TEMPERATURE IN CELSIUS
  WCI - WIND CHILL INDEX
   HX - HEAT INDEX
  VSB - VISIBILITY
$$




USA.gov is the U.S. government's official web portal to all federal, state and local government web resources and services.